Theta_e
294 296 299 299 304 302 299 299 301 303 305 310 314 318 320 321 326 326 324 324 323 322 323 324 323 321 320 319 318 317 316 315 315 316 317 318 318 318 318 318 317 317 316 316
294 300 304 302 304 302 304 304 305 305 306 313 317 321 321 326 326 325 324 324 322 323 323 321 318 317 317 316 315 315 314 314 315 316 317 318 317 317 317 316 316 314 314 314
291 301 302 298 304 304 305 307 307 304 308 317 316 319 321 326 328 326 325 324 322 322 322 319 317 316 314 314 314 313 314 315 315 315 316 316 316 314 313 312 312 311 310 311
293 297 292 301 309 310 309 311 310 312 313 318 319 321 322 329 329 327 328 323 322 320 318 316 316 314 314 313 313 312 313 313 314 315 314 314 312 310 310 310 309 309 309 309
295 294 298 306 308 310 307 307 315 314 316 320 321 320 320 330 330 328 323 321 321 320 316 315 314 313 312 311 311 311 311 312 313 313 312 312 311 310 309 308 308 307 307 307
296 294 294 303 308 314 314 302 319 322 321 320 320 313 314 327 322 320 320 319 316 316 315 313 312 312 310 309 310 311 313 313 313 313 311 310 310 310 309 308 307 307 306 305
296 296 300 307 312 314 302 303 321 325 322 322 319 318 321 320 318 318 317 314 315 316 313 312 311 310 308 309 310 312 313 315 315 314 312 311 310 310 309 308 307 306 305 305
297 295 296 311 313 308 311 316 326 328 326 322 316 318 319 317 313 312 311 313 314 313 312 312 311 309 308 309 312 313 313 312 312 313 313 312 310 310 309 308 307 307 306 305
301 301 306 311 313 315 318 324 327 328 326 320 315 315 317 312 311 311 311 311 313 313 311 311 311 310 309 311 311 311 312 311 310 310 311 310 309 309 307 308 306 306 306 305
305 306 310 312 316 317 323 327 329 328 321 319 315 315 312 311 309 309 309 309 310 311 311 310 311 311 311 312 312 311 310 310 310 308 308 308 308 308 308 308 307 307 306 306
305 309 312 316 318 321 324 325 323 323 321 316 314 312 311 309 308 308 307 308 311 311 310 308 308 309 310 311 311 310 309 308 307 307 306 305 307 308 309 310 308 308 308 307
305 309 308 311 319 322 322 321 321 317 314 315 314 310 309 308 307 307 306 306 307 306 306 306 306 307 308 309 309 307 306 305 305 306 303 304 305 306 305 305 303 301 300 303
312 315 315 319 321 322 320 320 320 317 313 310 309 309 309 305 306 307 305 305 305 306 306 305 305 305 307 308 308 307 306 306 305 304 303 304 304 303 303 304 302 300 298 298
319 318 316 316 316 320 320 318 316 314 312 310 307 307 307 305 306 305 304 304 305 306 306 304 305 307 310 309 307 307 307 305 306 305 303 303 304 303 301 301 302 303 301 300
316 318 317 316 315 313 314 313 310 308 307 306 308 306 306 305 304 304 304 305 306 306 304 305 307 308 310 309 307 308 307 307 307 307 306 305 304 304 304 304 303 303 303 302
318 319 317 314 314 314 313 311 308 307 307 307 306 306 306 306 305 304 304 304 304 303 305 306 307 309 310 312 312 311 311 311 312 309 308 308 305 305 306 307 306 306 304 304
317 315 315 313 313 312 311 311 310 309 308 307 306 306 306 305 304 303 303 304 305 306 307 307 308 310 311 310 310 310 310 311 313 308 309 308 307 307 308 308 307 307 306 306
321 320 320 316 313 311 310 309 309 309 308 307 307 306 305 304 303 302 303 304 305 306 307 308 310 311 311 312 311 311 310 311 311 308 309 309 309 309 309 309 308 307 309 308
320 318 317 316 315 314 310 309 309 309 308 308 307 306 306 305 304 304 304 304 305 306 309 310 312 316 314 313 317 313 312 312 310 308 308 308 309 310 309 309 310 310 310 309
319 319 317 316 315 313 310 311 310 309 309 308 306 305 304 303 304 304 305 305 307 309 312 314 313 312 312 312 314 314 314 312 308 307 307 308 310 309 310 305 310 311 311 310
317 317 315 316 316 314 312 311 310 308 309 308 307 305 305 304 305 306 306 306 310 310 311 313 313 313 312 313 313 312 310 309 307 306 306 307 309 310 311 311 310 309 309 309
318 316 316 315 314 312 311 311 310 309 309 307 307 306 305 305 305 306 308 308 310 309 311 313 313 314 315 317 312 310 310 309 308 306 306 309 310 311 309 307 307 308 308 308
318 316 315 313 312 311 309 309 310 310 308 307 307 306 306 307 306 306 306 311 310 310 312 312 312 312 313 312 311 311 310 310 308 308 309 309 309 308 307 306 306 307 305 302
316 316 314 313 311 309 307 307 308 308 308 308 308 308 307 306 308 309 310 308 308 310 312 313 313 312 311 313 312 312 310 309 310 310 309 301 306 304 304 306 304 304 301 298
314 312 312 312 310 309 308 307 307 307 307 308 308 308 309 310 310 311 312 312 309 310 314 311 311 311 313 313 313 313 311 310 308 308 307 305 302 302 302 304 302 300 298 297
313 312 312 312 310 310 309 309 307 307 307 307 308 309 310 311 312 312 312 309 313 310 312 313 312 314 315 315 314 311 307 306 307 306 303 302 302 301 302 301 300 298 297 296
310 308 310 309 309 310 310 309 308 307 308 309 309 310 312 313 313 313 309 313 312 312 312 312 312 312 314 314 309 307 306 306 303 305 302 301 300 300 301 299 298 297 296 295
Wind_Speed
7 7 5 5 5 7 8 2 7 9 11 9 14 12 9 8 7 10 10 9 8 7 8 9 9 8 7 6 6 5 6 6 5 3 3 4 6 6 6 6 5 6 8 8
5 5 7 3 1 6 5 4 3 7 5 3 10 8 9 10 10 10 10 9 9 9 10 10 9 7 6 6 6 5 5 3 2 4 5 5 5 6 6 7 8 7 7 8
8 3 6 1 9 7 4 5 7 7 9 10 9 12 15 13 13 12 10 9 11 11 10 9 8 6 6 5 5 5 4 3 2 4 5 5 5 7 8 9 7 7 8 8
3 3 3 9 1 2 3 3 6 3 7 8 11 6 7 8 11 12 11 11 10 10 9 9 7 7 7 5 4 4 2 1 2 3 4 5 7 6 6 5 7 6 7 7
6 4 4 2 5 8 9 7 5 8 11 10 12 8 4 7 6 9 10 11 11 11 11 10 9 7 7 4 3 4 4 3 3 3 4 4 5 5 4 4 5 5 5 7
3 6 8 10 4 7 4 3 8 12 16 17 9 4 5 9 9 11 12 13 14 13 11 10 7 7 7 6 5 4 3 3 3 4 4 3 3 3 2 2 4 5 6 6
3 4 6 7 3 3 8 12 12 15 16 14 7 4 10 14 10 12 13 15 13 12 11 9 7 6 7 6 5 2 2 2 3 2 3 1 3 2 3 4 4 5 6 6
2 4 2 7 5 10 9 3 15 13 9 10 8 12 17 16 15 16 16 14 13 11 10 7 7 7 7 6 3 2 3 4 4 3 2 2 4 4 4 4 4 4 5 6
8 9 3 7 6 2 4 14 10 15 13 12 16 10 15 16 16 15 16 12 10 11 9 5 5 6 7 4 3 3 3 3 3 3 3 3 4 5 4 3 3 4 4 5
3 3 5 6 1 4 3 9 16 15 19 14 17 15 15 14 14 13 11 11 8 10 8 6 4 5 5 4 3 4 3 1 2 3 4 3 3 3 4 4 5 4 4 5
6 8 3 3 4 4 7 13 16 14 16 20 20 16 14 15 13 12 11 8 8 8 7 6 4 4 3 3 3 3 1 2 3 3 4 4 3 4 4 5 5 3 4 4
7 4 2 6 5 10 17 17 19 23 15 10 17 19 17 13 11 12 11 7 6 6 7 5 4 4 3 2 3 2 2 1 1 2 2 3 3 5 8 12 14 8 12 9
3 3 1 1 7 4 12 14 14 20 21 20 13 16 14 14 9 12 10 8 8 8 6 6 5 4 2 2 2 2 3 3 2 2 2 3 2 2 4 7 6 9 9 8
5 3 4 4 5 11 13 16 16 16 14 14 17 13 14 13 12 11 11 8 7 7 6 5 5 4 3 3 3 2 0 1 2 3 3 3 4 4 3 4 5 6 6 4
6 8 8 9 15 14 14 19 17 16 16 15 12 15 15 14 12 9 8 6 6 6 5 4 4 4 4 3 3 2 1 1 2 3 3 5 4 3 3 4 4 6 5 6
9 21 14 9 13 14 15 15 19 14 14 14 14 12 11 11 10 9 8 8 8 6 7 6 5 3 4 3 2 1 1 6 5 3 3 3 2 3 4 4 5 5 5 5
8 15 11 3 5 9 10 11 15 14 15 13 12 11 12 11 9 8 6 5 5 6 6 6 5 5 4 3 3 2 2 3 5 3 3 3 3 3 4 5 6 6 6 6
10 14 19 16 13 15 11 12 13 14 14 13 13 12 12 12 11 8 7 6 4 2 4 6 5 5 5 4 4 3 3 4 4 4 3 4 4 4 5 6 6 7 7 7
10 17 14 13 15 8 13 14 13 12 13 13 13 12 11 9 8 6 6 6 5 4 5 5 7 6 4 4 4 3 3 4 4 4 4 5 5 5 6 6 7 7 8 7
13 14 18 13 11 12 15 11 12 12 11 12 10 10 8 7 8 7 6 6 6 5 2 2 4 4 4 4 4 2 4 4 5 5 4 5 5 6 6 6 6 6 7 8
15 16 19 17 10 10 11 13 14 13 11 11 13 10 10 8 7 8 6 3 5 6 5 5 4 4 3 3 3 3 4 5 5 6 5 4 5 5 4 5 5 7 8 7
15 16 17 16 13 10 10 10 11 12 11 8 7 7 8 6 5 4 3 5 2 3 2 3 3 6 4 4 2 4 5 5 5 4 4 3 3 3 3 5 6 6 6 6
13 14 15 14 14 12 9 10 11 13 12 10 10 9 8 6 5 4 3 5 3 5 4 4 5 7 4 3 4 4 4 3 3 2 2 1 1 2 4 5 5 6 6 6
16 13 12 11 14 13 12 5 8 8 9 7 8 8 8 4 2 3 3 3 5 6 4 4 5 7 4 4 4 3 2 2 2 2 2 2 2 3 3 4 4 4 5 6
13 12 13 14 12 7 10 9 9 8 8 6 6 5 5 3 3 3 3 3 6 4 3 4 8 7 4 3 3 2 1 2 2 2 2 1 3 3 4 3 4 4 4 4
13 9 9 10 10 9 8 8 8 5 6 5 3 3 3 3 2 2 2 1 1 2 4 3 4 3 3 2 1 3 3 3 3 2 2 2 3 3 3 3 3 3 4 4
10 11 9 8 6 8 7 8 8 6 5 6 5 4 4 3 3 2 1 1 2 3 4 3 3 3 1 3 3 3 3 3 3 3 2 3 3 3 2 2 2 3 3 4
Wind_Direction
227 209 185 243 194 176 208 192 160 219 191 214 189 178 153 143 128 125 127 135 132 120 104 95 89 79 83 91 103 88 64 52 34 350 32 38 28 19 16 15 10 14 13 8
236 178 188 239 204 181 174 152 265 124 255 166 125 116 132 149 158 148 153 153 137 128 117 116 113 105 94 82 72 75 75 68 8 17 23 34 29 20 12 8 12 8 8 2
241 180 118 331 218 198 169 178 147 169 215 154 141 158 170 162 165 168 164 148 143 137 131 122 119 128 111 96 81 80 79 45 11 30 33 30 38 25 19 21 15 11 10 5
171 102 179 239 8 123 134 153 170 117 145 158 156 110 121 157 161 163 155 147 138 129 121 121 128 111 100 93 98 97 112 50 30 71 54 45 45 30 24 15 12 8 3 358
136 172 260 310 206 163 168 232 177 129 128 113 116 84 68 154 152 156 144 142 135 133 134 134 124 116 110 121 153 171 164 119 94 83 59 44 37 17 16 11 8 2 356 358
147 145 185 228 220 166 101 282 173 140 148 143 144 125 215 153 122 120 128 132 132 133 131 123 135 134 138 166 178 156 125 147 124 88 76 43 6 1 15 14 358 359 1 5
183 176 280 246 185 156 123 231 160 151 160 156 160 181 139 123 108 125 130 126 125 129 131 133 135 142 155 166 144 138 87 113 90 79 74 13 350 352 350 354 351 358 356 345
117 90 184 150 70 172 198 149 144 150 159 133 108 120 124 124 127 127 126 126 125 125 133 151 162 160 148 127 147 91 80 65 43 31 13 353 338 326 336 339 336 336 339 339
183 208 279 226 191 224 179 143 157 147 145 140 129 122 132 133 133 135 130 128 130 132 137 160 163 141 122 146 116 87 91 58 21 352 337 342 334 326 325 319 309 309 317 312
10 290 263 280 335 160 242 138 149 143 139 144 130 132 131 128 126 123 128 131 129 133 143 148 142 115 137 149 121 96 98 22 322 318 316 316 296 287 289 297 303 298 299 298
264 274 275 214 244 139 96 106 110 118 141 137 131 131 134 128 133 135 130 127 136 146 146 132 126 132 153 151 123 97 66 359 346 341 329 316 284 262 275 266 227 279 283 268
233 231 156 268 161 148 139 142 137 125 116 123 136 135 135 131 131 133 133 131 128 125 121 141 146 179 189 132 123 114 52 42 312 324 329 320 329 323 239 254 289 264 260 245
262 311 235 187 98 100 133 135 132 128 134 133 125 130 129 127 129 132 128 132 138 150 147 152 163 183 196 170 157 172 193 206 255 288 293 288 295 290 308 320 282 284 293 292
225 158 70 1 136 112 118 105 97 97 105 117 122 118 122 120 131 137 142 148 140 138 146 152 161 187 203 167 145 133 100 246 261 282 275 274 261 261 273 280 297 308 306 276
90 75 87 112 92 98 107 110 105 112 117 114 119 124 126 137 140 146 129 132 128 136 139 156 177 204 198 170 164 157 71 303 283 281 279 272 277 288 289 295 284 282 302 298
135 98 65 35 116 121 126 116 114 118 119 123 124 124 137 133 132 129 125 142 145 168 167 177 209 225 194 188 192 303 305 286 285 298 307 313 301 288 303 304 287 285 286 271
157 79 87 70 96 116 118 116 121 127 126 124 125 134 130 126 125 123 151 175 147 158 172 175 206 195 195 200 216 255 268 275 283 288 283 259 266 275 276 275 275 290 284 278
135 127 154 150 154 132 124 116 119 127 135 137 136 131 130 146 152 157 165 151 133 151 205 214 222 239 243 239 235 234 251 275 275 271 281 273 276 280 283 290 281 281 288 283
122 114 108 136 117 159 125 124 134 130 131 136 136 144 151 145 148 148 135 144 167 191 247 200 234 228 246 261 266 231 251 269 273 277 269 279 286 285 283 286 286 291 294 296
109 112 118 118 122 153 129 130 130 130 138 134 124 131 141 147 145 144 154 183 198 205 222 220 232 233 243 271 301 257 266 266 272 280 288 289 287 294 302 285 294 311 318 317
128 127 125 127 140 132 131 143 138 141 142 139 146 162 165 155 153 147 148 184 244 226 239 258 248 253 252 274 285 274 269 270 270 275 282 297 300 304 299 318 341 351 344 339
139 136 137 134 143 134 140 143 133 132 138 133 130 128 127 137 149 185 210 191 224 189 214 248 245 248 257 289 285 269 264 264 272 292 290 284 294 313 336 353 357 352 350 355
130 131 131 138 144 133 116 128 138 140 142 144 146 151 158 171 162 148 226 240 214 230 231 248 255 262 271 275 261 270 285 300 294 282 279 97 22 356 358 352 356 10 20 17
120 133 121 123 122 122 126 123 126 125 133 138 147 156 142 148 209 249 256 242 235 234 246 261 280 283 259 275 293 304 300 266 229 131 110 75 28 7 2 9 28 19 12 14
122 119 128 123 124 131 126 124 110 110 113 121 137 163 164 167 158 203 219 241 247 255 287 283 278 285 306 292 270 249 188 144 122 122 99 43 10 5 9 23 20 13 14 13
118 125 127 135 141 134 131 135 130 131 127 130 149 167 172 187 193 219 248 253 314 274 271 286 302 305 281 277 173 131 141 121 131 124 83 27 15 13 8 16 19 23 13 4
105 111 109 100 97 122 129 131 134 150 161 158 151 179 173 185 213 204 126 233 284 286 288 304 298 289 250 135 129 122 117 127 126 106 58 29 19 8 13 13 25 14 1 357